Location: Hurstbourne Priors
(51.2000°N, 1.3667°W)
Time: 20:17:05
(UTC+00:00)

Transit 4A - Pass Details

Date: 27 April 2021
Orbit: 870 x 974 km, 66.8° (Epoch: 09 May)

Event Time Altitude Azimuth Distance (km) Brightness Sun altitude
Rises 22:34:37 0° 222° (SW) 3,614 - -21.9°
Exits shadow 22:36:41 - 224° (SW) 2,845 10.2 -22.0°
Reaches altitude 10° 22:37:11 10° 224° (SW) 2,658 10.1 -22.0°
Maximum altitude 22:43:23 74° 310° (NW) 963 8.0 -22.4°
Drops below altitude 10° 22:49:26 10° 36° (NE) 2,599 10.7 -22.7°
Sets 22:51:56 0° 38° (NE) 3,528 11.4 -22.8°
